Location: Arbon
(43.0005°N, 0.7472°E)
Time: 19:25:31
(UTC+00:00)

Cosmos 990 Rocket - Pass Details

Date: 07 August 2020
Orbit: 747 x 768 km, 74.0° (Epoch: 24 September)

Event Time Altitude Azimuth Distance (km) Brightness Sun altitude
Exits shadow 02:23:30 42° 167° (SSE) 1,067 4.4 -22.5°
Maximum altitude 02:25:04 63° 106° (ESE) 845 4.2 -22.3°
Drops below altitude 10° 02:30:11 10° 26° (NNE) 2,287 7.6 -21.7°
Sets 02:32:34 0° 24° (NNE) 3,213 8.6 -21.5°
